Volver al catálogo

STARLINK-5892

ActivoComunicacionesVLEO
NORAD 55954·PAYLOAD·🇺🇸 United States

Lanzado Mar 17, 2023 desde Vandenberg Space Force Base

Loading…

Próximos Pases (próximas 24 horas)

TLE

ActualizadoSource: CelesTrak SupGP

Época: Sep 15, 2026, 03:01 UTC

1 55954C 23037AS  26258.12618056  .00025529  00000+0  21396-2 0  2588
2 55954  70.0009 146.7553 0002723 273.4122 333.8297 14.98314290    19

Sigue STARLINK-5892 en tiempo real con AllMySat

Download on the App Store